Tracking 19574 objects as of 16-Feb-2019
HD Live streaming from Space Station
objects crossing your sky now

OSCAR 5

Track OSCAR 5 now!
10-day predictions
OSCAR 5 is classified as:


NORAD ID: 4321
Int'l Code: 1970-008B
Perigee: 1,440.6 km
Apogee: 1,484.6 km
Inclination: 101.7 °
Period: 115.0 minutes
Semi major axis: 7833 km
RCS: 0.3365 m2 (medium)
Launch date: January 23, 1970
Source: Australia (AUS)
Launch site: AIR FORCE WESTERN TEST RANGE (AFWTR)

Uplink (MHz):
Downlink (MHz): 29.450
Beacon (MHz): 144.050
Mode: CW
Call sign:
Status: Inactive

aabbcc
Your satellite tracking list
Your tracking list is empty




NASA's NSSDC Master Catalog

Two Line Element Set (TLE):
1  4321U 70008B   19047.12111884 -.00000050  00000-0 -39308-4 0  9996
2  4321 101.6639 114.2672 0028066  77.5774 335.2993 12.52166499242704
Source of the keplerian elements: AFSPC